[[{"header":{"parameterUnit":"m.s-1","parameterCategory":1,"la1":30.2991,"la2":30.254,"lo1":-89.0895,"lo2":-89.0444,"dy":0.0017,"dx":0.0017,"nx":28,"ny":28,"refTime":"2024-10-07T03:00:00:Z","depth":0,"parameterNumber":2,"parameterNumberName":"U-component_of_WINDS"},"data":[0,0,0,0,0,0,0,0,0,0,0,0,0,0,0,0,0,0,0,0,0,0,0,0,0,0,0,0,0,0,0,0,0,0,0,0,0,0,0,0,0,0,0,0,0,0,0,0,0,0,0,0,0,0,0,0,0,0,-1.8994,-1.8995,0,-1.9055,-1.9055,-1.9056,-1.8994,-1.8991,-1.8989,-1.8987,-1.905,-1.9054,-1.9058,0,0,0,0,0,0,0,0,0,0,0,0,0,-1.8825,-1.8828,-1.8994,-1.8995,-1.8995,-1.9054,-1.9055,-1.9056,-1.8994,-1.8991,-1.8988,-1.8986,-1.9049,-1.9054,-1.9058,0,0,0,0,0,0,0,0,0,0,0,0,0,-1.8893,-1.8829,-1.8994,-1.8972,-1.897,-1.9054,-1.9055,-1.9056,-1.8995,-1.8991,-1.8988,-1.8984,-1.9047,-1.9053,-1.9059,-1.9168,0,0,-1.9077,-1.908,0,0,0,0,0,0,0,0,-1.8889,-1.8899,-1.8974,-1.8973,-1.8972,-1.9013,-1.9019,-1.9094,-1.8996,-1.8986,-1.8987,-1.8982,-1.9041,-1.9047,-1.9066,-1.9171,-1.9174,-1.9078,-1.9081,-1.9084,-1.9085,0,0,0,0,0,0,0,-1.8885,-1.8896,-1.9018,-1.8975,-1.8974,-1.8959,-1.8964,-1.9033,-1.9033,-1.8986,-1.8982,-1.899,-1.9039,-1.9061,-1.9067,-1.9175,-1.9077,-1.9083,-1.9086,-1.9089,-1.9372,-1.9376,0,0,0,0,0,0,-1.8882,-1.8893,-1.9016,-1.902,-1.8921,-1.8965,-1.8971,-1.9003,-1.9032,-1.9033,-1.8993,-1.8987,-1.9053,-1.9061,-1.9069,-1.92,-1.9084,-1.9089,-1.9093,-1.9368,-1.9373,-1.9377,0,0,0,0,0,0,-1.8879,-1.8894,-1.9013,-1.8955,-1.8969,-1.8972,-1.9008,-1.9007,-1.9028,-1.9037,-1.9037,-1.9015,-1.905,-1.9061,-1.9144,-1.9201,-1.9092,-1.9097,-1.9363,-1.937,-1.9375,-1.9462,0,0,0,0,0,0,-1.8874,-1.8893,-1.8935,-1.8957,-1.8973,-1.9087,-1.9012,-1.901,-1.9038,-1.9031,-1.9057,-1.9058,-1.9048,-1.9136,-1.915,-1.9207,-1.9102,-1.9358,-1.9366,-1.9373,-1.9454,-1.947,-1.9484,0,0,0,0,0,-1.8868,-1.8957,-1.8937,-1.8952,-1.9025,-1.9091,-1.91,-1.9086,-1.9043,-1.9085,-1.9091,-1.9058,-1.9192,-1.9145,-1.916,-1.922,-1.9355,-1.9364,-1.9373,-1.9447,-1.9467,-1.9483,0,0,0,0,0,0,-1.8943,-1.8959,-1.8938,-1.9036,-1.9062,-1.908,-1.9133,-1.9107,-1.9147,-1.9138,-1.9119,-1.9126,-1.9214,-1.9225,-1.9172,-1.9327,-1.9266,-1.9279,-1.9318,-1.9336,-1.9351,-1.9348,-1.9107,0,0,0,0,0,-1.897,-1.9022,-1.9034,-1.9119,-1.9134,-1.9131,-1.9159,-1.9146,-1.9173,-1.9184,-1.9196,-1.9223,-1.9272,-1.9304,-1.9349,-1.9454,-1.9459,-1.9503,-1.9518,-1.953,-1.9542,-1.9599,-1.9619,-1.9407,-1.9407,-1.9406,0,0,-1.9028,-1.9044,-1.9078,-1.9135,-1.9154,-1.9208,-1.9141,-1.9202,-1.9242,-1.9193,-1.9273,-1.9282,-1.9311,-1.9406,-1.9448,-1.9418,-1.9601,-1.9541,-1.9551,-1.9556,-1.961,-1.963,-1.9648,-1.9413,-1.9412,-1.9411,0,0,-1.9162,-1.9179,-1.9252,-1.9272,-1.9301,-1.9298,-1.9316,-1.9338,-1.9342,-1.9421,-1.9385,-1.9433,-1.9516,-1.9539,-1.9561,-1.9702,-1.9674,-1.9717,-1.9796,-1.9852,-1.9869,-1.9883,-1.9935,-1.9953,-1.9728,-1.9728,-1.9729,0,-1.9231,-1.9312,-1.9293,-1.9356,-1.9383,-1.9339,-1.9414,-1.9434,-1.9477,-1.9496,-1.9461,-1.9565,-1.9581,-1.9681,-1.9715,-1.9734,-1.9754,-1.9715,-1.9867,-1.9882,-1.9896,-1.9945,-1.9964,-1.9734,-1.9733,-1.9733,-1.9732,0,-1.9395,-1.9452,-1.9507,-1.955,-1.9582,-1.965,-1.9642,-1.9676,-1.9659,-1.9661,-1.9741,-1.9759,-1.9807,-1.9829,-1.9814,-1.9927,-1.9907,-1.987,-1.9809,-1.9921,-1.9967,-1.9986,-1.9741,-1.9739,-1.9738,-1.9736,0,0,-1.9581,-1.961,-1.9631,-1.965,-1.9678,-1.9721,-1.9787,-1.9833,-1.9864,-1.9894,-1.995,-2.0021,-1.9986,-2.0012,-1.9998,-2.0046,-2.0158,-2.0003,-2.0004,-2.0033,-2.0285,-2.0314,-2.0336,-2.0138,-2.0141,-2.0144,-2.0283,0,-1.9717,-1.9832,-1.9816,-1.9927,-1.9979,-1.9938,-1.9995,-2.0019,-2.0021,-2.0066,-2.0067,-2.0119,-2.0069,-2.0084,-2.013,-2.0135,-2.0209,-2.0124,-2.0191,-2.0193,-2.0187,-2.036,-2.0392,-2.0522,-2.03,-2.0303,-2.0306,0,-1.9892,-1.9928,-2.0044,-2.0064,-2.0085,-2.0137,-2.0178,-2.0221,-2.0247,-2.0245,-2.0273,-2.025,-2.0316,-2.0251,-2.0342,-2.0285,-2.0311,-2.0317,-2.0322,-2.033,-2.0258,-2.0374,-2.0563,-2.0584,-2.0333,-2.0331,-2.0329,0,-2.0018,-2.0095,-2.0175,-2.0191,-2.0216,-2.0254,-2.0266,-2.0287,-2.0316,-2.0351,-2.037,-2.0413,-2.0437,-2.047,-2.046,-2.0413,-2.0554,-2.0488,-2.0555,-2.0555,-2.0589,-2.0587,-2.0786,-2.0602,-2.0601,-2.0601,-2.06,0,-2.0173,-2.0246,-2.0232,-2.0281,-2.0361,-2.0341,-2.0422,-2.0428,-2.0448,-2.0498,-2.0463,-2.0511,-2.0492,-2.0539,-2.053,-2.0608,-2.0618,-2.0619,-2.0617,-2.0624,-2.0624,-2.0643,-2.0634,-2.0606,-2.0605,-2.0604,-2.0603,0,-2.0329,-2.0322,-2.0406,-2.0421,-2.0427,-2.0486,-2.0499,-2.0545,-2.0543,-2.0607,-2.0621,-2.0619,-2.0671,-2.0663,-2.0721,-2.0715,-2.0813,-2.0798,-2.0805,-2.0802,-2.087,-2.0865,-2.109,-2.1119,-2.0914,-2.0916,-2.0917,0,-2.043,-2.0485,-2.0506,-2.0537,-2.0551,-2.0601,-2.063,-2.0612,-2.0644,-2.0676,-2.0718,-2.0768,-2.0807,-2.0892,-2.0896,-2.0941,-2.0928,-2.1004,-2.0935,-2.094,-2.0931,-2.0929,-2.0935,-2.1018,-2.1021,-2.1023,-2.1024,0,-2.061,-2.0603,-2.0646,-2.0688,-2.0723,-2.0755,-2.0784,-2.0811,-2.0795,-2.0832,-2.0886,-2.0916,-2.0974,-2.1024,-2.1065,-2.1077,-2.1049,-2.1045,-2.1063,-2.1073,-2.1075,-2.1077,-2.0844,-2.1041,-2.1039,-2.1038,-2.1037,-2.1036,-2.0743,-2.079,-2.0812,-2.0861,-2.088,-2.0908,-2.0952,-2.0955,-2.0999,-2.1046,-2.1032,-2.1093,-2.1115,-2.1168,-2.1184,-2.1231,-2.1203,-2.1229,-2.1236,-2.1244,-2.1253,-2.1065,-2.1238,-2.1238,-2.1237,-2.1237,-2.1237,0,-2.0923,-2.0935,-2.098,-2.1021,-2.1059,-2.1027,-2.1056,-2.1091,-2.1145,-2.1168,-2.1206,-2.1267,-2.1315,-2.1322,-2.1367,-2.1403,-2.1391,-2.1416,-2.1414,-2.1418,-2.1274,-2.1255,-2.1425,-2.1425,-2.1425,-2.1425,-2.1425,-2.1425,-2.1022,-2.11,-2.1096,-2.1184,-2.1194,-2.1254,-2.1273,-2.1298,-2.1317,-2.1387,-2.1426,-2.1429,-2.1446,-2.1492,-2.1534,-2.1535,-2.1554,-2.1584,-2.158,-2.1447,-2.1428,-2.141,-2.1392,-2.1588,-2.1588,-2.172,-2.1721,-2.1722]},{"header":{"parameterUnit":"m.s-1","parameterCategory":1,"la1":30.2991,"la2":30.254,"lo1":-89.0895,"lo2":-89.0444,"dy":0.0017,"dx":0.0017,"nx":28,"ny":28,"refTime":"2024-10-07T03:00:00:Z","depth":0,"parameterNumber":3,"parameterNumberName":"V-component_of_WINDS"},"data":[0,0,0,0,0,0,0,0,0,0,0,0,0,0,0,0,0,0,0,0,0,0,0,0,0,0,0,0,0,0,0,0,0,0,0,0,0,0,0,0,0,0,0,0,0,0,0,0,0,0,0,0,0,0,0,0,0,0,-5.7381,-5.7382,0,-5.745,-5.7451,-5.7452,-5.7363,-5.736,-5.7357,-5.7354,-5.7421,-5.7425,-5.743,0,0,0,0,0,0,0,0,0,0,0,0,0,-5.7166,-5.7171,-5.7381,-5.7382,-5.7383,-5.745,-5.7451,-5.7452,-5.7364,-5.736,-5.7356,-5.7352,-5.7419,-5.7425,-5.743,0,0,0,0,0,0,0,0,0,0,0,0,0,-5.725,-5.7172,-5.7381,-5.7347,-5.7345,-5.745,-5.7451,-5.7452,-5.7365,-5.736,-5.7355,-5.7351,-5.7417,-5.7424,-5.7431,-5.7572,0,0,-5.7453,-5.7456,0,0,0,0,0,0,0,0,-5.7245,-5.7258,-5.7351,-5.7349,-5.7347,-5.7393,-5.74,-5.7492,-5.7366,-5.7357,-5.7354,-5.7348,-5.7415,-5.7422,-5.7446,-5.7575,-5.7578,-5.7454,-5.7458,-5.7461,-5.7463,0,0,0,0,0,0,0,-5.724,-5.7254,-5.7408,-5.7352,-5.735,-5.7326,-5.7333,-5.7417,-5.7412,-5.7357,-5.7351,-5.7361,-5.7413,-5.7439,-5.7447,-5.7579,-5.7454,-5.746,-5.7464,-5.7467,-5.7826,-5.7831,0,0,0,0,0,0,-5.7239,-5.725,-5.7406,-5.741,-5.7283,-5.7334,-5.7342,-5.7383,-5.7411,-5.7411,-5.7365,-5.7356,-5.7429,-5.7438,-5.7449,-5.7614,-5.7461,-5.7468,-5.7472,-5.7821,-5.7827,-5.7833,0,0,0,0,0,0,-5.7234,-5.7253,-5.7403,-5.7329,-5.7346,-5.7343,-5.7391,-5.7387,-5.7413,-5.7417,-5.7415,-5.7393,-5.7426,-5.7438,-5.7542,-5.7616,-5.7471,-5.7478,-5.7814,-5.7822,-5.783,-5.7948,0,0,0,0,0,0,-5.7229,-5.7252,-5.7307,-5.7331,-5.735,-5.7498,-5.7395,-5.7392,-5.7426,-5.7416,-5.7442,-5.7442,-5.7423,-5.7532,-5.7549,-5.7623,-5.7483,-5.7808,-5.7818,-5.7827,-5.7938,-5.7959,-5.7978,0,0,0,0,0,-5.7221,-5.7337,-5.7311,-5.733,-5.7419,-5.7502,-5.7513,-5.749,-5.7433,-5.7487,-5.7489,-5.7441,-5.7605,-5.7543,-5.7562,-5.7639,-5.7803,-5.7815,-5.7826,-5.7929,-5.7955,-5.7977,0,0,0,0,0,0,-5.7321,-5.734,-5.731,-5.7438,-5.7469,-5.7487,-5.7555,-5.7519,-5.7566,-5.7554,-5.7522,-5.7528,-5.7639,-5.7649,-5.758,-5.7776,-5.7694,-5.771,-5.7765,-5.779,-5.781,-5.7805,-5.7489,0,0,0,0,0,-5.7358,-5.7426,-5.7437,-5.7548,-5.7566,-5.7558,-5.7593,-5.7573,-5.7603,-5.7616,-5.7625,-5.7656,-5.7713,-5.7752,-5.7806,-5.7939,-5.7942,-5.8001,-5.802,-5.8037,-5.8051,-5.812,-5.8146,-5.7871,-5.7871,-5.7871,0,0,-5.7435,-5.7453,-5.7498,-5.7569,-5.7591,-5.766,-5.757,-5.7646,-5.7697,-5.7627,-5.7725,-5.7734,-5.7765,-5.7883,-5.7936,-5.7895,-5.8128,-5.8052,-5.8065,-5.807,-5.8135,-5.8161,-5.8184,-5.7879,-5.7878,-5.7876,0,0,-5.761,-5.7632,-5.7726,-5.775,-5.7785,-5.7779,-5.7802,-5.7825,-5.7828,-5.7927,-5.7876,-5.7934,-5.8035,-5.8059,-5.8084,-5.8268,-5.8225,-5.8286,-5.839,-5.8458,-5.848,-5.8499,-5.8564,-5.8587,-5.83,-5.8301,-5.8301,0,-5.7701,-5.7805,-5.7779,-5.786,-5.7892,-5.7833,-5.7927,-5.7951,-5.8001,-5.8024,-5.7978,-5.8103,-5.812,-5.8243,-5.8287,-5.831,-5.8334,-5.8283,-5.8479,-5.8498,-5.8515,-5.8577,-5.8601,-5.8308,-5.8307,-5.8306,-5.8305,0,-5.7914,-5.7986,-5.8058,-5.8109,-5.8149,-5.8237,-5.8222,-5.8266,-5.8241,-5.824,-5.834,-5.8358,-5.8414,-5.8441,-5.8418,-5.8561,-5.8534,-5.8485,-5.8402,-5.8549,-5.8606,-5.8629,-5.8318,-5.8315,-5.8313,-5.8311,0,0,-5.8155,-5.8191,-5.8217,-5.8239,-5.8273,-5.8328,-5.8411,-5.8467,-5.8504,-5.854,-5.8608,-5.8695,-5.8649,-5.8678,-5.8656,-5.8716,-5.8859,-5.8658,-5.8659,-5.8695,-5.9016,-5.9054,-5.9082,-5.8831,-5.8836,-5.8839,-5.9014,0,-5.8329,-5.8476,-5.8455,-5.8596,-5.8661,-5.8606,-5.8678,-5.8705,-5.8706,-5.876,-5.8759,-5.8821,-5.8755,-5.8772,-5.8829,-5.883,-5.8924,-5.8817,-5.8893,-5.8896,-5.8887,-5.9111,-5.9151,-5.9315,-5.9036,-5.904,-5.9042,0,-5.8554,-5.8599,-5.8747,-5.877,-5.8796,-5.8862,-5.8911,-5.8964,-5.8993,-5.8989,-5.9022,-5.8989,-5.907,-5.8986,-5.9097,-5.9025,-5.9055,-5.906,-5.9066,-5.9072,-5.8978,-5.9123,-5.9367,-5.9392,-5.9077,-5.9074,-5.9072,0,-5.8714,-5.8812,-5.8913,-5.8933,-5.8962,-5.901,-5.9024,-5.9048,-5.9083,-5.9125,-5.9147,-5.9198,-5.9225,-5.9264,-5.9246,-5.9186,-5.936,-5.9274,-5.9357,-5.9358,-5.9396,-5.9394,-5.9648,-5.9416,-5.9416,-5.9415,-5.9415,0,-5.8911,-5.9004,-5.8985,-5.9047,-5.9148,-5.9122,-5.9222,-5.9229,-5.9251,-5.9312,-5.9266,-5.9324,-5.9295,-5.9351,-5.9336,-5.943,-5.9442,-5.944,-5.9435,-5.9444,-5.9445,-5.9463,-5.9451,-5.9422,-5.942,-5.9419,-5.9418,0,-5.9108,-5.9099,-5.9205,-5.9224,-5.9231,-5.9304,-5.932,-5.9377,-5.9373,-5.945,-5.9467,-5.9461,-5.9523,-5.9508,-5.9576,-5.9566,-5.9684,-5.9665,-5.9675,-5.967,-5.9753,-5.9746,-6.0028,-6.0063,-5.9809,-5.9811,-5.9813,0,-5.9234,-5.9304,-5.9331,-5.9369,-5.9387,-5.9449,-5.9485,-5.9461,-5.9499,-5.9537,-5.9589,-5.9648,-5.9694,-5.9795,-5.9796,-5.9847,-5.9828,-5.9924,-5.9836,-5.9843,-5.9829,-5.9825,-5.9832,-5.9941,-5.9944,-5.9947,-5.9949,0,-5.946,-5.9452,-5.9506,-5.9558,-5.9602,-5.9642,-5.9677,-5.971,-5.9688,-5.9734,-5.9798,-5.9833,-5.9903,-5.9961,-6.0008,-6.002,-5.9981,-5.9976,-5.9998,-6.0008,-6.0011,-6.001,-5.9722,-5.997,-5.9968,-5.9966,-5.9965,-5.9964,-5.9625,-5.9684,-5.9712,-5.9773,-5.9797,-5.9831,-5.9885,-5.9888,-5.9942,-5.9998,-5.998,-6.0053,-6.0078,-6.0137,-6.0155,-6.021,-6.0174,-6.0206,-6.0214,-6.0222,-6.0232,-6.0002,-6.0219,-6.0218,-6.0218,-6.0217,-6.0217,0,-5.9847,-5.9863,-5.9919,-5.997,-6.0018,-5.9978,-6.0014,-6.0056,-6.0121,-6.0149,-6.0195,-6.0268,-6.0324,-6.0329,-6.0381,-6.0424,-6.0407,-6.0439,-6.0435,-6.0438,-6.0262,-6.0238,-6.0451,-6.0451,-6.0451,-6.0451,-6.0451,-6.0451,-5.9969,-6.0067,-6.0062,-6.0171,-6.0184,-6.0257,-6.0281,-6.0311,-6.0333,-6.0417,-6.0464,-6.0467,-6.0485,-6.0538,-6.0587,-6.0587,-6.0608,-6.0646,-6.0639,-6.0474,-6.0451,-6.0428,-6.0405,-6.0651,-6.0651,-6.081,-6.0812,-6.0813]}]]